Regional Weather Roundup
Issued by NWS Sterling, VA

Home | Current Version | Previous Version | Text Only | Print | Product List | Glossary Off
Versions: 1 2 3 4 5 6 7 8 9 10 11 12 13 14 15 16 17 18 19 20 21 22 23 24 25 26 27 28 29 30 31 32 33 34 35 36 37 38 39 40 41 42 43 44 45 46 47 48 49 50

000
ASUS41 KLWX 011610
RWRLWX

REGIONAL WEATHER ROUNDUP
NATIONAL WEATHER SERVICE BALTIMORE MD/WASHINGTON DC
1100 AM EST SUN MAR 01 2015

Note: "FAIR" indicates few or no clouds below 12,000 feet
with no significant weather and/or obstructions to visibility.
 TC=TEMPERATURE CELSIUS

 * =Non NWS site. Station does not report precipitation (e.g. rain,
    snow, etc.), thunder, or fog.

DCZ001-MDZ009-015-VAZ040>042-051-053>054-011700-
WASHINGTON METRO

CITY           SKY/WX    TMP DP  RH WIND       PRES   REMARKS
WASHINGTON NAT FRZ RAIN  28  23  80 S7        30.61F
DULLES         FRZ RAIN  26  21  81 S7        30.58F
ANDREWS AFB    MIX PCPN  27  23  87 S6        30.59F
FT BELVOIR     FRZ RAIN  27  23  86 VRB2      30.60F
QUANTICO       FRZ RAIN  28  23  81 SW6       30.62F
COLLEGE PARK*  CLOUDY    28  25  86 S3        30.60F
LEESBURG*      MIX PCPN  28  27  93 S8        30.58F WCI  20
MANASSAS*      CLOUDY    27  27 100 S8        30.59F WCI  18
GAITHERSBURG*  CLOUDY    25  19  80 S8        30.60F WCI  16

$$

MDZ006>007-011-014-011700-
BALTIMORE METRO

CITY           SKY/WX    TMP DP  RH WIND       PRES   REMARKS
BWI AIRPORT    FRZ RAIN  25  20  81 S7        30.59F
MD SCIENCE CTR   N/A      1  32 100 MISG      30.60F
MARTIN STATE   LGT SNOW  27  25  93 S13       30.62F WCI  16
ANNAPOLIS      FRZ RAIN  26  22  84 SE9       30.60F FOG     WCI  17
FORT MEADE*    CLOUDY    27  23  86 SE5       30.62F

$$

MDZ012-015-019>023-011700-
MARYLAND EASTERN SHORE

CITY           SKY/WX    TMP DP  RH WIND       PRES   REMARKS
OCEAN CITY     MIX PCPN  29  25  85 N7        30.61F
SALISBURY      FRZ RAIN  30  24  78 NE5       30.60F
BAY BRIDGE AP* LGT SNOW  27  23  86 SE10      30.62F WCI  17
CAMBRIDGE*     CLOUDY    30  23  74 E3        30.62F
EASTON*        LGT SNOW  27  25  93 CALM      30.65F

$$

MDZ017>025-011700-
SOUTHERN MARYLAND

CITY           SKY/WX    TMP DP  RH WIND       PRES   REMARKS
PATUXENT RIVER FRZ RAIN  26  20  77 E5        30.61F FOG
ST INIGOES     FRZ RAIN  27  21  78 E7        30.60F
LEONARDTOWN*   CLOUDY    28  25  86 E3        30.62F

$$

MDZ003>005-011700-
NORTH CENTRAL MARYLAND

CITY           SKY/WX    TMP DP  RH WIND       PRES   REMARKS
FREDERICK*     LGT SNOW  28  21  74 MISG      30.59F
HAGERSTOWN APT LGT SNOW  25  20  81 S9        30.50F VSB 3/4 WCI  15
WESTMINSTER*   LGT SNOW  25  19  80 S10       30.53F WCI  15

$$

MDZ501>502-011700-
WESTERN MARYLAND

CITY           SKY/WX    TMP DP  RH WIND       PRES   REMARKS
OAKLAND*       CLOUDY    32 N/A N/A S12G17    30.32S FOG     WCI  23
CUMBERLAND*    CLOUDY    28  23  80 CALM      30.52F

$$

VAZ025>031-011700-
SHENANDOAH VALLEY

CITY           SKY/WX    TMP DP  RH WIND       PRES   REMARKS
WINCHESTER*    MIX PCPN  30  23  74 S8        30.50F WCI  23
FRONT ROYAL*   CLOUDY    28  23  80 CALM      30.50F
LURAY*         CLOUDY    32  23  69 SW6       30.48F
NEW MARKET*    CLOUDY    28  18  65 CALM      30.49F
STAUNTON*      CLOUDY    31  20  64 SW5       30.50F
WAYNESBORO*    CLOUDY    28  19  67 CALM      30.47F

$$

WVZ021-048>050-054>055-011700-
EASTERN WEST VIRGINIA PANHANDLE

CITY           SKY/WX    TMP DP  RH WIND       PRES   REMARKS
MARTINSBURG    LGT SNOW  27  22  81 S5        30.51F
PETERSBURG*    NOT AVBL

$$

VAZ036>039-050-011700-
CENTRAL FOOTHILLS

CITY           SKY/WX    TMP DP  RH WIND       PRES   REMARKS
CHARLOTTESVILL LGT RAIN  28  19  69 S3        30.56F
CULPEPER*      MIX PCPN  28  25  86 S5        30.59F
ORANGE*        MIX PCPN  30  27  86 CALM      30.59F
GORDONSVILLE*  CLOUDY    27  20  76 CALM      30.57F
WARRENTON*     MIX PCPN  29  28  95 S5        30.58F

$$

VAZ055>057-011700-
NORTH AND CENTRAL PIEDMONT

CITY           SKY/WX    TMP DP  RH WIND       PRES   REMARKS
FREDERICKSBRG* MIX PCPN  28  26  91 CALM      30.60F
STAFFORD*      MIX PCPN  27  32 100 CALM      30.64F

$$

NCZ024-NYZ072-PAZ021-071-VAZ022-071-011700-
OTHER REGIONAL OBSERVATIONS

CITY           SKY/WX    TMP DP  RH WIND       PRES   REMARKS
NEW YORK CITY  CLOUDY    30   2  30 S7        30.62F
PHILADELPHIA   LGT SNOW  27  17  66 S14       30.62F WCI  16
PITTSBURGH     LGT SNOW  33  31  92 SW9       30.34F VSB 1   WCI  25
ROANOKE        CLOUDY    30  15  53 VRB3      30.54F
RICHMOND       FRZ RAIN  29  21  72 N5        30.60F FOG
RALEIGH        LGT RAIN  33  30  88 NE5       30.54F FOG

$$

ANZ530>537-011700-
MARINE OBSERVATIONS

STATION/POSITION TIME  TEMP    WIND        PRES
                       AIR SEA DIR/SP/G
                 (UTC) (F)     (DEG/KT/KT) (MB)
THOMAS PT LIGHT  1600   25 31  150/ 10/ 11 1037.2F
BALT KEY BRIDGE  1500   24     140/  6/  8 1037.7F
COVE POINT       1500   24     140/  3/  5 1037.7F
LEWISETTA        1500   28 32              1037.1F
SOLOMONS ISLAND  1500      32                N/A

$$



USA.gov is the U.S. government's official web portal to all federal, state and local government web resources and services.